Minneapolis, MN

1:54 PM CDT on July 28, 2016 (GMT -0500)
Minneapolis-Saint Paul International

Weather History for KMSP - October, 2011

Change the Weather History Date:

Sunday, October 23, 2011

  Actual Average Record
Temperature  
Mean Temperature 50 °F 46 °F  
Max Temperature 58 °F 55 °F 82 °F (1899)
Min Temperature 42 °F 37 °F 17 °F (1936)
Degree Days  
Heating Degree Days 15 19  
Month to date heating degree days 191 338  
Since 1 July heating degree days 341 511  
Cooling Degree Days 0 0  
Month to date cooling degree days 54 3  
Year to date cooling degree days 1061 750  
Moisture  
Dew Point 41 °F    
Average Humidity 70    
Maximum Humidity 86    
Minimum Humidity 54    
Precipitation  
Precipitation 0.01 in 0.07 in 1.01 in (1995)
Month to date precipitation 0.69 1.93  
Year to date precipitation 25.61 27.18  
Snow  
Snow 0.00 in 0.00 in 1.40 in (1938)
Month to date snowfall 0.0 0.2  
Since 1 July snowfall 0.0 0.2  
Since 1 September snowfall 0.0 0.2  
Snow Depth 0.00 in    
Sea Level Pressure  
Sea Level Pressure 29.87 in    
Wind  
Wind Speed 6 mph (WSW)    
Max Wind Speed 17 mph    
Max Gust Speed 22 mph    
Visibility 10 miles    
Events Rain    
T = Trace of Precipitation, MM = Missing Value Source: NWS Daily Summary

Daily Weather History Graph

Daily Weather History Graph

Search for Another Location

Airport or City:

Trip Planner

Search our weather history database for the weather conditions in past years. The results will help you decide how hot, cold, wet, or windy it might be!

Date:

Astronomy

Oct. 23, 2011 Rise Set
Actual Time 7:38 AM CDT 6:15 PM CDT
Civil Twilight 7:08 AM CDT 6:45 PM CDT
Nautical Twilight 6:34 AM CDT 7:19 PM CDT
Astronomical Twilight 6:00 AM CDT 7:53 PM CDT
Moon 3:37 AM CDT (10/23) 4:13 PM CDT (10/23)
Length of Visible Light 11h 36m
Length of Day
10h 36m
Waning Crescent, 14% of the Moon is Illuminated
Oct 23
Waning Crescent
Oct 26
New
Nov 2
First Quarter
Nov 10
Full
Nov 18
Last Quarter

Hourly Weather History & Observations

Time (CDT) Temp. Windchill Dew Point Humidity Pressure Visibility Wind Dir Wind Speed Gust Speed Precip Events Conditions
12:53 AM 48.0 °F - 32.0 °F 54% 29.95 in 10.0 mi SSE 5.8 mph - N/A   Scattered Clouds
1:53 AM 48.0 °F - 32.0 °F 54% 29.93 in 10.0 mi South 6.9 mph - N/A   Overcast
2:53 AM 48.0 °F - 32.0 °F 54% 29.92 in 10.0 mi Calm Calm - N/A   Mostly Cloudy
3:53 AM 48.0 °F - 36.0 °F 63% 29.91 in 9.0 mi Calm Calm - 0.00 in Rain Light Rain
4:53 AM 45.0 °F 41.8 °F 37.9 °F 76% 29.90 in 10.0 mi SE 5.8 mph - 0.01 in Rain Light Rain
5:53 AM 45.0 °F 41.2 °F 39.9 °F 82% 29.87 in 10.0 mi SE 6.9 mph - 0.00 in   Overcast
6:53 AM 46.9 °F - 41.0 °F 80% 29.86 in 10.0 mi South 6.9 mph - N/A   Mostly Cloudy
7:53 AM 46.0 °F 43.9 °F 41.0 °F 83% 29.86 in 10.0 mi SSW 4.6 mph - N/A   Mostly Cloudy
9:53 AM 52.0 °F - 44.1 °F 74% 29.83 in 10.0 mi Variable 5.8 mph - N/A   Mostly Cloudy
10:53 AM 52.0 °F - 44.1 °F 74% 29.83 in 10.0 mi SW 9.2 mph 16.1 mph N/A   Overcast
11:53 AM 54.0 °F - 44.1 °F 69% 29.82 in 10.0 mi WSW 8.1 mph - N/A   Overcast
12:53 PM 54.0 °F - 44.1 °F 69% 29.83 in 10.0 mi WSW 11.5 mph 20.7 mph N/A   Overcast
1:53 PM 55.0 °F - 46.9 °F 74% 29.81 in 8.0 mi West 6.9 mph - 0.00 in Rain Light Rain
2:53 PM 55.9 °F - 46.0 °F 69% 29.80 in 10.0 mi NW 5.8 mph - 0.00 in   Mostly Cloudy
3:53 PM 55.9 °F - 46.0 °F 69% 29.82 in 10.0 mi NNW 10.4 mph - N/A   Mostly Cloudy
4:33 PM 57.2 °F - 44.6 °F 63% 29.82 in 10.0 mi NNW 15.0 mph - N/A   Mostly Cloudy
4:50 PM 57.2 °F - 44.6 °F 63% 29.83 in 10.0 mi NW 11.5 mph - N/A   Scattered Clouds
4:53 PM 57.0 °F - 44.1 °F 62% 29.83 in 10.0 mi WNW 11.5 mph - N/A   Scattered Clouds
5:53 PM 54.0 °F - 43.0 °F 66% 29.87 in 10.0 mi NNW 11.5 mph - N/A   Mostly Cloudy
6:53 PM 51.1 °F - 42.1 °F 71% 29.89 in 10.0 mi NW 6.9 mph - N/A   Partly Cloudy
7:53 PM 48.0 °F - 42.1 °F 80% 29.92 in 10.0 mi WNW 4.6 mph - N/A   Clear
8:53 PM 46.9 °F - 42.1 °F 83% 29.93 in 10.0 mi WNW 4.6 mph - N/A   Clear
9:53 PM 46.0 °F 44.8 °F 41.0 °F 83% 29.94 in 10.0 mi West 3.5 mph - N/A   Clear
10:53 PM 44.1 °F - 39.9 °F 85% 29.95 in 10.0 mi Calm Calm - N/A   Clear
11:53 PM 44.1 °F 42.5 °F 39.9 °F 85% 29.95 in 8.0 mi South 3.5 mph - N/A   Clear